| time (UTC) | temp F | wind direction | speed MPH | gust MPH | rain 1hr in | rain 24hr in | rain mn in | humidity % | barometer mb |
| 20260504184537 | 54 | 250 | 0.0 | 0.0 | 0.00 | 0.00 | 0.06 | 70 | 1010.3 |
| 20260504183030 | 55 | 250 | 0.0 | 0.0 | 0.00 | 0.00 | 0.06 | 67 | 1010.2 |
| 20260504181529 | 56 | 248 | 0.0 | 0.0 | 0.00 | 0.00 | 0.06 | 65 | 1010.2 |
| 20260504180038 | 56 | 248 | 0.0 | 0.0 | 0.00 | 0.00 | 0.06 | 64 | 1010.2 |
| 20260504174528 | 57 | 248 | 0.0 | 0.0 | 0.00 | 0.00 | 0.06 | 63 | 1010.1 |
| 20260504173028 | 57 | 245 | 0.0 | 0.0 | 0.00 | 0.00 | 0.06 | 61 | 1010.2 |
| 20260504171528 | 59 | 326 | 0.0 | 0.0 | 0.00 | 0.00 | 0.06 | 60 | 1010.2 |
| 20260504081533 | 51 | 269 | 0.0 | 0.0 | 0.00 | 0.00 | 0.06 | 91 | 1008.2 |
| 20260504050017 | 51 | 355 | 0.0 | 0.0 | 0.00 | 0.00 | 0.06 | 93 | 1005.6 |
| 20260504044515 | 51 | 355 | 0.0 | 0.0 | 0.00 | 0.00 | 0.06 | 93 | 1005.3 |
| 20260504043015 | 51 | 355 | 0.0 | 0.0 | 0.00 | 0.00 | 0.06 | 93 | 1005.2 |
| 20260504041514 | 51 | 360 | 0.0 | 0.0 | 0.00 | 0.00 | 0.06 | 93 | 1005.1 |
| 20260504040013 | 52 | 322 | 0.0 | 0.0 | 0.00 | 0.00 | 0.06 | 93 | 1005.1 |
| 20260504034510 | 53 | 355 | 0.0 | 0.0 | 0.00 | 0.00 | 0.06 | 93 | 1005.0 |
| 20260504033009 | 54 | 236 | 0.0 | 0.0 | 0.00 | 0.00 | 0.06 | 93 | 1005.0 |
| 20260504031509 | 54 | 248 | 2.0 | 0.0 | 0.00 | 0.00 | 0.06 | 93 | 1005.1 |
| 20260504030007 | 54 | 228 | 4.0 | 0.0 | 0.00 | 0.00 | 0.06 | 93 | 1005.0 |
| 20260504024505 | 54 | 242 | 2.0 | 0.0 | 0.00 | 0.00 | 0.06 | 94 | 1005.0 |
| 20260504023005 | 53 | 228 | 2.0 | 0.0 | 0.00 | 0.00 | 0.06 | 93 | 1005.1 |
| 20260504021504 | 53 | 265 | 0.0 | 0.0 | 0.00 | 0.00 | 0.06 | 93 | 1005.1 |
| 20260504020004 | 53 | 265 | 0.0 | 0.0 | 0.00 | 0.00 | 0.06 | 93 | 1005.2 |
| 20260504014505 | 53 | 265 | 0.0 | 0.0 | 0.00 | 0.00 | 0.06 | 93 | 1005.0 |
| 20260504013001 | 53 | 265 | 0.0 | 0.0 | 0.00 | 0.00 | 0.06 | 93 | 1005.1 |
| 20260504011501 | 53 | 265 | 0.0 | 0.0 | 0.00 | 0.00 | 0.06 | 93 | 1005.2 |
| 20260504010125 | 53 | 265 | 0.0 | 0.0 | 0.00 | 0.00 | 0.06 | 93 | 1005.2 |
| 20260504004600 | 53 | 265 | 0.0 | 0.0 | 0.00 | 0.00 | 0.06 | 93 | 1005.4 |
| 20260504003058 | 53 | 265 | 0.0 | 0.0 | 0.00 | 0.00 | 0.05 | 93 | 1005.2 |
| 20260504001611 | 53 | 265 | 0.0 | 0.0 | 0.00 | 0.00 | 0.05 | 92 | 1005.4 |
| 20260504000105 | 54 | 265 | 0.0 | 0.0 | 0.00 | 0.00 | 0.05 | 93 | 1005.4 |
| 20260503234553 | 54 | 265 | 0.0 | 0.0 | 0.00 | 0.00 | 0.05 | 92 | 1005.6 |
| 20260503233050 | 54 | 265 | 0.0 | 0.0 | 0.00 | 0.00 | 0.04 | 92 | 1005.8 |
| 20260503231553 | 54 | 265 | 0.0 | 0.0 | 0.00 | 0.00 | 0.04 | 92 | 1006.0 |
| 20260503230048 | 54 | 265 | 0.0 | 0.0 | 0.00 | 0.00 | 0.03 | 92 | 1006.2 |
| 20260503224549 | 54 | 265 | 0.0 | 0.0 | 0.00 | 0.00 | 0.02 | 92 | 1006.4 |
| 20260503223044 | 54 | 228 | 0.0 | 0.0 | 0.00 | 0.00 | 0.02 | 92 | 1006.4 |
| 20260503221543 | 54 | 228 | 0.0 | 0.0 | 0.00 | 0.00 | 0.01 | 91 | 1006.4 |
| 20260503220041 | 53 | 228 | 0.0 | 0.0 | 0.00 | 0.00 | 0.00 | 91 | 1006.5 |
| 20260503214548 | 53 | 228 | 0.0 | 0.0 | 0.00 | 0.00 | 0.17 | 91 | 1006.8 |
| 20260503213102 | 53 | 227 | 0.0 | 0.0 | 0.00 | 0.00 | 0.16 | 91 | 1006.9 |
| 20260503211600 | 53 | 227 | 0.0 | 0.0 | 0.00 | 0.00 | 0.13 | 90 | 1006.9 |
| 20260503210038 | 53 | 227 | 0.0 | 0.0 | 0.00 | 0.00 | 0.11 | 90 | 1006.3 |
| 20260503204552 | 53 | 227 | 0.0 | 0.0 | 0.00 | 0.00 | 0.11 | 89 | 1006.4 |
| 20260503203036 | 53 | 227 | 0.0 | 0.0 | 0.00 | 0.00 | 0.09 | 88 | 1006.8 |
| 20260503201531 | 54 | 227 | 0.0 | 0.0 | 0.00 | 0.00 | 0.07 | 87 | 1007.4 |
| 20260503200032 | 54 | 228 | 0.0 | 0.0 | 0.00 | 0.00 | 0.00 | 85 | 1007.8 |
| 20260503194531 | 54 | 228 | 0.0 | 0.0 | 0.00 | 0.00 | 0.00 | 85 | 1007.5 |
| 20260503193031 | 54 | 228 | 0.0 | 0.0 | 0.00 | 0.00 | 0.00 | 85 | 1007.4 |
| 20260503191530 | 54 | 228 | 0.0 | 0.0 | 0.00 | 0.00 | 0.00 | 84 | 1007.2 |
| 20260503190030 | 54 | 228 | 0.0 | 0.0 | 0.00 | 0.00 | 0.00 | 84 | 1007.4 |